Location: Darlington Observatory
(36.4817°N, 105.8156°W)
Time: 13:03:43
(UTC-07:00)

Daily predictions for brighter satellites

Satellite Brightness Start Highest point End
(mag) Time Altitude Azimuth Time Altitude Azimuth Time Altitude Azimuth
Tsikada Rocket 4.2 17:30:21 10° S 17:36:42 88° W 17:43:10 10° N
Cosmos 2219 Rocket 2.4 17:31:48 10° S 17:37:19 57° ESE 17:42:50 10° NNE
BREEZE-M DEB (TANK) 1.7 17:37:13 10° SW 17:41:23 78° NW 17:43:35 10° NE
Cosmos 1328 Rocket 3.7 17:37:24 10° N 17:41:46 55° E 17:46:07 10° SSE
Abrixas 4.1 17:42:25 10° S 17:44:45 21° SE 17:47:05 10° E
Cosmos 2151 3.8 17:41:24 10° SSE 17:45:02 29° E 17:48:40 10° NNE
Cosmos 2278 Rocket 3.1 17:40:27 10° N 17:45:10 26° ENE 17:49:52 10° ESE
Cosmos 540 Rocket 4.1 17:41:02 10° SSE 17:45:42 35° E 17:50:22 10° NE
Cosmos 1908 3.3 17:42:21 10° N 17:46:15 88° WSW 17:50:08 10° S
Cosmos 332 Rocket 3.8 17:43:09 10° SSW 17:47:57 82° ESE 17:52:49 10° NNE
Cosmos 1515 Rocket 3.8 17:44:25 10° N 17:48:45 48° E 17:53:02 10° SSE
SL-14 R/B 4.0 17:47:05 10° SSE 17:50:33 31° E 17:54:03 10° NNE
Cosmos 1674 3.4 17:48:02 10° SSW 17:51:47 59° W 17:55:34 10° N
SKYMED 2 3.8 17:48:04 10° NNE 17:52:18 51° E 17:56:31 10° S
USA 215 3.8 17:48:50 10° E 17:54:49 40° NE 18:00:48 10° NNW
Cosmos 1484 Rocket 2.8 17:52:15 10° SSE 17:56:04 59° ENE 17:59:58 10° N
Cosmos 1844 3.8 17:50:48 10° NNW 17:56:30 56° ENE 18:02:10 10° SE
SPOT 3 Rocket 3.9 17:52:40 10° S 17:57:46 70° WSW 18:02:56 10° NNW
Cosmos 1151 Rocket 3.4 17:54:04 10° N 17:58:06 39° E 18:02:06 10° SSE
MSX 4.0 17:54:42 10° S 18:00:25 81° WSW 18:06:10 10° NNW
Haruka 3.9 17:57:03 10° SW 18:00:35 44° SSE 18:09:15 10° E
Thor Agena Rocket 4.2 17:55:28 10° N 18:00:38 61° WNW 18:05:43 10° SSW
Cosmos 1500 Rocket 3.5 17:56:27 10° S 18:00:45 77° E 18:05:05 10° N
COSMOS 2428 3.8 17:59:18 10° SW 18:04:46 45° WNW 18:10:14 10° N
BREEZE M DEB (TANK) 3.4 18:03:50 10° NNW 18:05:12 13° NNE 18:05:48 12° NNE
Cosmos 1125 Rocket 3.8 18:00:39 10° N 18:05:38 44° ENE 18:10:34 10° SE
Cosmos 1634 Rocket 3.9 18:00:11 10° N 18:06:22 71° E 18:12:29 10° SSE
Cosmos 2237 Rocket 2.2 18:02:30 10° S 18:08:00 61° ESE 18:13:34 10° NNE
ALOS 3.7 18:06:13 10° ESE 18:09:00 16° ENE 18:11:49 10° NNE
Cosmos 44 3.5 18:04:44 10° SSW 18:09:59 67° ESE 18:15:05 10° NE
Cosmos 1300 2.8 18:07:01 10° N 18:10:45 49° E 18:14:27 10° SSE
Cosmos 1726 2.2 18:08:46 10° N 18:12:28 54° E 18:16:09 10° SSE
SL-16 R/B 3.1 18:08:14 10° SSE 18:12:51 27° ESE 18:16:18 15° NE
Hubble Space Telescope 3.2 18:11:09 10° WSW 18:14:03 18° SSW 18:16:58 10° SSE
IDEFIX/ARIANE 42P 4.3 18:09:21 10° SSW 18:14:07 37° W 18:18:56 10° NNW
BREEZE-M DEB (TANK) 3.0 18:14:18 10° S 18:15:34 19° SE 18:15:43 19° SE
Sich 1 4.4 18:14:08 10° SE 18:17:18 19° E 18:17:56 19° ENE
CZ-4 R/B 4.1 18:14:55 10° SSW 18:17:57 22° W 18:21:01 10° NW
Cosmos 371 Rocket 3.6 18:13:35 10° SSW 18:18:21 67° WNW 18:23:09 10° NNE
Lacrosse 5 rocket 2.8 18:16:22 10° N 18:19:02 18° NE 18:19:24 17° NE
OTV 4 0.3 18:16:14 10° WNW 18:19:13 78° NNE 18:20:41 26° E
Cosmos 1633 Rocket 4.5 18:17:26 10° SE 18:20:04 18° E 18:20:04 18° E
FREGAT/IRIS 4.0 18:18:36 10° SE 18:25:11 - N 18:20:10 21° ESE
NOSS 0 Rocket 4.0 18:18:51 10° SSW 18:25:05 81° WNW 18:31:20 10° NNE
Resurs 01 Rocket 3.1 18:31:56 20° NE 18:31:56 20° NE 18:33:59 10° NNE
Cosmos 2084 4.4 18:27:46 10° SW 18:31:28 39° NW 18:34:44 12° NNE
Meteor 1-11 4.2 18:29:17 10° S 18:34:56 84° E 18:40:41 10° N
Meteor 1-28 Rocket 3.5 18:31:53 10° N 18:35:33 65° WNW 18:39:13 10° SSW
Aureole 2 Rocket 2.4 18:32:39 10° S 18:36:10 73° ESE 18:38:34 22° NNE
CENTAUR R/B 4.2 18:32:47 10° W 18:38:00 28° NW 18:43:45 10° NNE
COSMO-SKYMED 1 3.8 18:36:10 10° N 18:40:16 41° WNW 18:44:20 10° SW
Centaur AC-119 4.3 18:40:47 10° S 18:42:27 14° SSE 18:42:54 14° SE
Cosmos 1844 Rocket 4.0 18:37:21 10° NW 18:42:39 42° WSW 18:47:55 10° S
Cosmos 1707 Rocket 3.9 18:39:57 10° N 18:44:02 39° E 18:48:05 10° SSE
Cosmos 1461 3.2 18:42:28 10° S 18:46:30 44° ESE 18:47:02 42° E
SJ-6B 2.7 18:43:31 10° SSE 18:47:32 72° ENE 18:51:38 10° N
FengYun 1-2 T 4.4 18:45:49 10° SE 18:51:08 48° ENE 18:56:26 10° N
Cosmos 1666 Rocket 3.6 18:47:38 10° SSE 18:51:49 51° E 18:52:39 44° NE
Cosmos 2058 3.8 18:51:50 10° SSW 18:55:49 49° W 18:59:49 10° N
Cosmos 2279 Rocket 4.1 18:52:23 10° N 18:58:36 76° W 19:04:48 10° S
H-2A ROCKET BODY 3.6 18:33:39 10° WSW 18:59:04 52° S 19:02:28 27° ESE
Cosmos 1703 3.4 18:59:04 10° SSW 19:02:57 73° W 19:04:47 30° N
Cosmos 304 Rocket 3.8 18:59:21 10° SSW 19:04:09 81° WNW 19:06:43 28° NNE
FENGYUN 3A 3.6 18:59:45 10° SSE 19:05:00 60° ENE 19:10:17 10° N
Cosmos 2333 Rocket 3.8 19:03:17 10° WSW 19:08:15 31° WNW 19:13:14 10° N
Cosmos 773 Rocket 4.4 19:06:31 10° S 19:10:33 43° SE 19:10:33 43° SE
Atlas Centaur 2 4.2 19:12:05 10° SW 19:13:30 11° SSW 19:14:51 10° SSW
Nadezhda 4 Rocket 3.9 19:10:01 10° S 19:16:15 88° E 19:22:34 10° N
Cosmos 1340 Rocket 4.4 19:14:28 10° SW 19:18:03 33° WNW 19:21:05 13° NNW
Cosmos 1356 Rocket 3.6 19:15:56 10° SSW 19:19:50 66° W 19:19:50 66° W
Cosmos 1626 3.3 19:24:03 10° SSW 19:27:22 43° W 19:27:22 43° W
Cosmos 2278 Rocket 3.5 19:24:05 10° NW 19:29:21 40° WSW 19:34:35 10° S
Cosmos 1092 Rocket 3.9 19:27:17 10° S 19:33:37 87° E 19:36:35 34° N
USA 215 3.7 19:32:58 20° SSE 19:37:35 59° SW 19:44:03 10° NW
Aureole 1 Rocket 4.1 19:38:49 10° SSW 19:42:13 51° SSW 19:42:13 51° SSW
ALOS 3.2 19:41:34 10° S 19:46:02 46° W 19:50:33 10° NNW
Spot 2 Rocket 4.4 19:48:15 10° S 19:53:06 47° W 19:57:58 10° NNW
Milstar 3 4.3 19:49:13 10° WSW 19:54:51 28° SSW 19:57:25 23° SSE
SL-16 R/B 3.4 19:51:31 10° SW 19:56:43 37° WNW 19:58:16 32° NNW
Lacrosse 5 rocket 4.1 19:54:38 10° NW 19:55:10 14° NW 19:55:10 14° NW
Resurs 01 Rocket 4.2 20:09:28 16° NW 20:09:28 16° NW 20:10:35 10° NW
USA 229 DEB 4.2 20:13:49 10° SW 20:19:18 54° WSW 20:19:18 54° WSW
USA 229 4.2 20:13:55 10° SW 20:19:21 54° WSW 20:19:21 54° WSW
